Location: Cambridge
(43.3830°N, 80.3170°W)
Time: 12:31:08
(UTC-04:00)

Tiangong 2 - Pass Details

Date: 21 March 2019
Orbit: 378 x 389 km, 42.8° (Epoch: 21 April)

Event Time Altitude Azimuth Distance (km) Brightness Sun altitude
Exits shadow 06:16:52 24° 245° (WSW) 847 2.2 -12.8°
Maximum altitude 06:18:03 32° 202° (SSW) 680 2.0 -12.6°
Drops below altitude 10° 06:20:55 10° 137° (SE) 1,400 4.3 -12.1°
Sets 06:23:06 0° 127° (SE) 2,254 5.6 -11.7°
